DW6513 Weather Reports


Display with metric or nautical units.
time (UTC)temp
F
wind
direction
speed
MPH
gust
MPH
rain 1hr
in
rain 24hr
in
rain mn
in
humidity
%
barometer
mb
20260903062305 79 212 0.0 0.0 0.00 0.00 0.00 62 1015.2
20260903061802 79 115 1.0 3.0 0.00 0.00 0.00 62 1015.2
20260903061302 80 145 1.0 0.0 0.00 0.00 0.00 62 1015.2
20260903055306 80 212 1.0 0.0 0.00 0.00 0.00 61 1015.1
20260903054802 80 126 1.0 3.0 0.00 0.00 0.00 61 1015.2
20260903054302 80 145 1.0 3.0 0.00 0.00 0.00 61 1015.2
20260903053802 80 118 1.0 2.0 0.00 0.00 0.00 60 1015.2
20260903053302 80 104 1.0 3.0 0.00 0.00 0.00 60 1015.2
20260903052802 80 119 1.0 2.0 0.00 0.00 0.00 60 1014.9
20260903052302 80 122 1.0 2.0 0.00 0.00 0.00 60 1014.9
20260903051801 81 99 2.0 3.0 0.00 0.00 0.00 60 1014.9
20260903051302 81 109 2.0 5.0 0.00 0.00 0.00 59 1014.9
20260903050818 81 121 1.0 5.0 0.00 0.00 0.00 59 1015.2
20260903050302 81 100 1.0 3.0 0.00 0.00 0.00 59 1015.2
20260903045802 81 148 1.0 2.0 0.00 0.00 0.00 59 1015.2
20260903045306 81 100 2.0 3.0 0.00 0.00 0.00 59 1015.2
20260903044802 82 123 1.0 3.0 0.00 0.00 0.00 59 1015.0
20260903044302 82 140 1.0 5.0 0.00 0.00 0.00 59 1015.0
20260903043802 82 102 1.0 3.0 0.00 0.00 0.00 58 1015.0
20260903043302 82 107 0.0 2.0 0.00 0.00 0.00 58 1015.0
20260903042802 82 278 0.0 2.0 0.00 0.00 0.00 58 1015.0
20260903042305 82 148 1.0 2.0 0.00 0.00 0.00 58 1015.0
20260903041802 82 147 1.0 2.0 0.00 0.00 0.00 57 1015.0
20260903041302 82 251 1.0 5.0 0.00 0.00 0.00 58 1015.0
20260903040804 82 100 1.0 5.0 0.00 0.00 0.00 57 1014.9
20260903035802 83 102 1.0 5.0 0.00 0.00 0.00 57 1015.1
20260903035306 83 145 1.0 3.0 0.00 0.00 0.00 57 1015.1
20260903034802 83 148 1.0 5.0 0.00 0.00 0.00 57 1015.2
20260903034302 83 115 0.0 0.0 0.00 0.00 0.00 57 1015.2
20260903033802 83 233 0.0 0.0 0.00 0.00 0.00 57 1015.2
20260903033302 83 150 0.0 0.0 0.00 0.00 0.00 57 1015.2
20260903032803 83 146 1.0 5.0 0.00 0.00 0.00 57 1015.1
20260903032305 83 159 1.0 3.0 0.00 0.00 0.00 57 1015.1
20260903031802 83 100 0.0 3.0 0.00 0.00 0.00 57 1015.1
20260903031302 83 145 1.0 2.0 0.00 0.00 0.00 57 1015.1
20260903030802 83 145 1.0 5.0 0.00 0.00 0.00 57 1015.1
20260903030302 83 106 1.0 5.0 0.00 0.00 0.00 57 1015.1
20260903025305 84 109 1.0 3.0 0.00 0.00 0.00 56 1015.1
20260903024302 84 128 0.0 0.0 0.00 0.00 0.00 56 1014.8
20260903023803 84 13 0.0 2.0 0.00 0.00 0.00 55 1014.8
20260903023302 84 58 0.0 2.0 0.00 0.00 0.00 55 1014.8
20260903022802 84 214 1.0 3.0 0.00 0.00 0.00 55 1014.7
20260903022305 85 224 1.0 5.0 0.00 0.00 0.00 55 1014.7
20260903021802 85 164 0.0 5.0 0.00 0.00 0.00 55 1014.7
20260903021302 85 337 1.0 2.0 0.00 0.00 0.00 55 1014.7
20260903020803 85 261 1.0 6.0 0.00 0.00 0.00 54 1014.8
20260903015802 85 119 1.0 3.0 0.00 0.00 0.00 54 1014.8
20260903014802 85 228 1.0 5.0 0.00 0.00 0.00 54 1014.6
20260903014302 86 311 1.0 5.0 0.00 0.00 0.00 53 1014.5
20260903013802 86 288 1.0 2.0 0.00 0.00 0.00 52 1014.5
20260903012802 86 247 1.0 3.0 0.00 0.00 0.00 50 1014.1
20260903012306 86 85 1.0 5.0 0.00 0.00 0.00 50 1014.0
20260903011803 87 281 1.0 2.0 0.00 0.00 0.00 49 1014.0
20260903010802 87 189 1.0 5.0 0.00 0.00 0.00 48 1014.2
20260903010303 87 348 1.0 2.0 0.00 0.00 0.00 47 1014.2
20260903005803 88 214 1.0 3.0 0.00 0.00 0.00 47 1014.2
20260903005306 88 86 1.0 7.0 0.00 0.00 0.00 47 1014.2
20260903004302 89 145 1.0 5.0 0.00 0.00 0.00 44 1014.1
20260903003802 89 277 1.0 3.0 0.00 0.00 0.00 43 1014.1
20260903003303 89 101 0.0 5.0 0.00 0.00 0.00 42 1014.1
20260903002802 90 170 1.0 5.0 0.00 0.00 0.00 41 1014.2
20260903002306 90 235 1.0 3.0 0.00 0.00 0.00 40 1014.2
20260903001803 91 103 1.0 3.0 0.00 0.00 0.00 38 1014.2
20260903001303 91 137 1.0 3.0 0.00 0.00 0.00 37 1014.2
20260903000303 92 163 2.0 2.0 0.00 0.00 0.00 36 1013.7
20260902235802 92 80 2.0 5.0 0.00 0.00 0.00 36 1013.7
20260902235305 92 88 1.0 3.0 0.00 0.00 0.00 35 1013.7
20260902233802 93 256 1.0 6.0 0.00 0.00 0.00 34 1013.9
20260902232802 94 350 2.0 5.0 0.00 0.00 0.00 32 1014.2
20260902232306 94 137 2.0 8.0 0.00 0.00 0.00 32 1014.2
20260902231302 96 100 2.0 6.0 0.00 0.00 0.00 29 1014.2
20260902230803 98 171 2.0 3.0 0.00 0.00 0.00 26 1014.1
20260902230302 100 129 1.0 5.0 0.00 0.00 0.00 25 1014.1
20260902225802 101 97 0.0 2.0 0.00 0.00 0.00 25 1014.1
20260902225306 102 249 1.0 3.0 0.00 0.00 0.00 24 1014.1
20260902224802 102 146 1.0 3.0 0.00 0.00 0.00 25 1013.9
20260902223803 102 144 2.0 5.0 0.00 0.00 0.00 24 1013.9
20260902223302 102 135 2.0 6.0 0.00 0.00 0.00 24 1013.9
20260902222803 101 100 2.0 6.0 0.00 0.00 0.00 26 1014.2
20260902222305 100 100 2.0 5.0 0.00 0.00 0.00 27 1014.1
20260902221803 100 100 2.0 6.0 0.00 0.00 0.00 27 1014.1
20260902221304 99 117 4.0 9.0 0.00 0.00 0.00 28 1014.1
20260902220802 100 57 5.0 14.0 0.00 0.00 0.00 28 1014.2
20260902215802 101 122 2.0 6.0 0.00 0.00 0.00 27 1014.2
20260902215306 100 122 2.0 7.0 0.00 0.00 0.00 28 1014.2
20260902214802 102 122 1.0 6.0 0.00 0.00 0.00 28 1014.4
20260902214303 102 201 3.0 6.0 0.00 0.00 0.00 27 1014.4
20260902213302 101 122 3.0 8.0 0.00 0.00 0.00 27 1014.4
20260902212803 101 57 2.0 6.0 0.00 0.00 0.00 29 1014.5
20260902210802 101 101 2.0 7.0 0.00 0.00 0.00 30 1014.8
20260902210302 101 302 4.0 6.0 0.00 0.00 0.00 32 1014.8
20260902205802 99 146 5.0 12.0 0.00 0.00 0.00 31 1014.8
20260902205306 100 126 3.0 12.0 0.00 0.00 0.00 31 1014.8
20260902204802 100 99 5.0 10.0 0.00 0.00 0.00 33 1014.9
20260902204302 99 110 4.0 10.0 0.00 0.00 0.00 32 1014.9
20260902203803 99 100 5.0 9.0 0.00 0.00 0.00 32 1014.9
20260902203304 99 135 3.0 14.0 0.00 0.00 0.00 33 1014.9
20260902202803 100 172 3.0 14.0 0.00 0.00 0.00 32 1015.0
20260902202306 99 25 5.0 7.0 0.00 0.00 0.00 33 1015.0
20260902201802 98 117 3.0 6.0 0.00 0.00 0.00 33 1015.0
20260902201302 98 226 2.0 5.0 0.00 0.00 0.00 34 1015.0
20260902200303 98 311 6.0 8.0 0.00 0.00 0.00 32 1015.4
20260902195802 99 117 4.0 10.0 0.00 0.00 0.00 32 1015.4
20260902195306 100 156 3.0 10.0 0.00 0.00 0.00 32 1015.4
20260902194802 100 143 3.0 5.0 0.00 0.00 0.00 33 1015.5
20260902194303 101 230 4.0 3.0 0.00 0.00 0.00 33 1015.5
20260902193803 99 214 5.0 7.0 0.00 0.00 0.00 33 1015.5
20260902193302 99 136 5.0 10.0 0.00 0.00 0.00 33 1015.5
20260902192802 100 100 3.0 12.0 0.00 0.00 0.00 33 1015.6
20260902192306 100 145 3.0 12.0 0.00 0.00 0.00 35 1015.6
20260902191803 98 146 2.0 6.0 0.00 0.00 0.00 36 1015.6
20260902191302 98 302 3.0 3.0 0.00 0.00 0.00 37 1015.6
20260902185802 97 123 5.0 7.0 0.00 0.00 0.00 36 1016.0
20260902185306 98 99 5.0 9.0 0.00 0.00 0.00 37 1016.0
20260902184803 97 145 5.0 9.0 0.00 0.00 0.00 37 1016.0
20260902184302 97 94 5.0 7.0 0.00 0.00 0.00 37 1016.0
20260902183802 97 100 5.0 15.0 0.00 0.00 0.00 38 1016.0
20260902183303 97 110 3.0 9.0 0.00 0.00 0.00 38 1016.0
20260902182802 97 144 2.0 6.0 0.00 0.00 0.00 40 1016.2
20260902182306 96 171 4.0 9.0 0.00 0.00 0.00 41 1016.2
20260902181802 94 99 5.0 9.0 0.00 0.00 0.00 42 1016.2
20260902181302 93 320 5.0 12.0 0.00 0.00 0.00 41 1016.2
20260902180303 92 117 6.0 8.0 0.00 0.00 0.00 43 1016.5
20260902175803 92 300 6.0 9.0 0.00 0.00 0.00 43 1016.5
20260902175307 92 273 5.0 13.0 0.00 0.00 0.00 44 1016.5
20260902174803 92 81 5.0 13.0 0.00 0.00 0.00 45 1016.8
20260902173802 91 260 3.0 7.0 0.00 0.00 0.00 48 1016.8
20260902173303 91 162 6.0 10.0 0.00 0.00 0.00 48 1016.8
20260902171303 89 341 6.0 15.0 0.00 0.00 0.00 48 1017.0
20260902170802 90 100 5.0 15.0 0.00 0.00 0.00 47 1017.1
20260902165803 89 122 5.0 12.0 0.00 0.00 0.00 49 1017.1
20260902165308 89 88 6.0 12.0 0.00 0.00 0.00 48 1017.1
20260902164803 89 322 5.0 16.0 0.00 0.00 0.00 48 1017.2
20260902164302 89 83 6.0 18.0 0.00 0.00 0.00 48 1017.2
20260902163802 89 324 6.0 18.0 0.00 0.00 0.00 49 1017.2
20260902163303 89 100 8.0 15.0 0.00 0.00 0.00 48 1017.2
20260902162802 88 210 7.0 15.0 0.00 0.00 0.00 48 1017.3
20260902162306 88 250 6.0 10.0 0.00 0.00 0.00 50 1017.3
20260902161802 88 77 6.0 18.0 0.00 0.00 0.00 50 1017.3
20260902161302 87 83 5.0 18.0 0.00 0.00 0.00 50 1017.3
20260902160803 87 347 5.0 8.0 0.00 0.00 0.00 51 1017.6
20260902155803 87 303 7.0 10.0 0.00 0.00 0.00 51 1017.6
20260902155306 87 83 8.0 10.0 0.00 0.00 0.00 51 1017.6
20260902154802 86 256 8.0 9.0 0.00 0.00 0.00 51 1017.1
20260902154303 86 94 6.0 12.0 0.00 0.00 0.00 51 1017.1
20260902153802 86 257 6.0 18.0 0.00 0.00 0.00 51 1017.1
20260902153303 86 140 5.0 18.0 0.00 0.00 0.00 51 1017.1
20260902152803 86 75 5.0 8.0 0.00 0.00 0.00 53 1017.3
20260902152307 86 118 5.0 10.0 0.00 0.00 0.00 53 1017.3
20260902151803 86 101 5.0 5.0 0.00 0.00 0.00 56 1017.3
20260902151303 85 42 3.0 7.0 0.00 0.00 0.00 56 1017.3
20260902150803 85 258 3.0 6.0 0.00 0.00 0.00 57 1017.1
20260902145803 84 166 2.0 7.0 0.00 0.00 0.00 58 1017.1
20260902145305 84 78 3.0 7.0 0.00 0.00 0.00 58 1017.1
20260902144802 84 115 3.0 6.0 0.00 0.00 0.00 59 1017.2
20260902144303 83 145 3.0 7.0 0.00 0.00 0.00 59 1017.2
20260902143802 83 158 2.0 6.0 0.00 0.00 0.00 60 1017.2
20260902143303 83 154 3.0 5.0 0.00 0.00 0.00 60 1017.2
20260902142803 82 251 2.0 7.0 0.00 0.00 0.00 60 1017.1
20260902141802 82 237 2.0 5.0 0.00 0.00 0.00 61 1017.1
20260902141302 82 145 2.0 8.0 0.00 0.00 0.00 62 1017.1
20260902140802 81 121 2.0 8.0 0.00 0.00 0.00 62 1017.4
20260902135306 80 158 1.0 5.0 0.00 0.00 0.00 65 1017.4
20260902134303 80 145 1.0 5.0 0.00 0.00 0.00 67 1017.6
20260902133802 79 55 1.0 5.0 0.00 0.00 0.00 67 1017.6
20260902133303 79 122 1.0 5.0 0.00 0.00 0.00 69 1017.6
20260902132803 78 143 0.0 5.0 0.00 0.00 0.00 70 1016.9
20260902132306 78 80 0.0 0.0 0.00 0.00 0.00 70 1016.9
20260902131303 77 120 0.0 2.0 0.00 0.00 0.00 71 1016.9
20260902130803 77 348 0.0 0.0 0.00 0.00 0.00 72 1017.5
20260902130302 76 101 0.0 0.0 0.00 0.00 0.00 73 1017.5
20260902125803 76 143 0.0 0.0 0.00 0.00 0.00 73 1017.5
20260902125305 76 127 0.0 0.0 0.00 0.00 0.00 73 1017.5
20260902124303 76 110 0.0 2.0 0.00 0.00 0.00 74 1017.2
20260902123803 75 139 0.0 2.0 0.00 0.00 0.00 75 1017.2
20260902123302 75 62 0.0 0.0 0.00 0.00 0.00 75 1017.2
20260902122802 75 212 0.0 0.0 0.00 0.00 0.00 76 1017.2
20260902122305 75 163 0.0 0.0 0.00 0.00 0.00 77 1017.2
20260902121803 75 250 0.0 0.0 0.00 0.00 0.00 76 1017.2
20260902121303 74 176 0.0 0.0 0.00 0.00 0.00 76 1017.2
20260902120303 74 181 0.0 0.0 0.00 0.00 0.00 77 1016.9
20260902115803 74 121 0.0 0.0 0.00 0.00 0.00 76 1016.9
20260902115306 74 100 0.0 0.0 0.00 0.00 0.00 75 1016.9
20260902114302 74 100 0.0 0.0 0.00 0.00 0.00 73 1016.6
20260902113802 75 80 0.0 0.0 0.00 0.00 0.00 74 1016.6
20260902113303 75 145 0.0 0.0 0.00 0.00 0.00 74 1016.6
20260902112802 75 167 0.0 0.0 0.00 0.00 0.00 74 1016.7
20260902112305 75 143 0.0 0.0 0.00 0.00 0.00 75 1016.7
20260902111803 74 146 0.0 0.0 0.00 0.00 0.00 74 1016.7
20260902111303 74 129 0.0 0.0 0.00 0.00 0.00 74 1016.7
20260902110803 74 145 0.0 0.0 0.00 0.00 0.00 74 1016.6
20260902110303 74 92 0.0 0.0 0.00 0.00 0.00 74 1016.6
20260902105306 74 125 0.0 0.0 0.00 0.00 0.00 74 1016.5
20260902104803 74 278 0.0 0.0 0.00 0.00 0.00 73 1016.4
20260902104302 74 195 0.0 0.0 0.00 0.00 0.00 73 1016.4
20260902103804 74 279 0.0 0.0 0.00 0.00 0.00 73 1016.4
20260902103302 74 186 0.0 0.0 0.00 0.00 0.00 73 1016.4
20260902102803 74 322 0.0 0.0 0.00 0.00 0.00 72 1016.3
20260902102307 75 145 0.0 0.0 0.00 0.00 0.00 72 1016.3
20260902101803 75 187 0.0 0.0 0.00 0.00 0.00 72 1016.3
20260902100802 75 56 0.0 2.0 0.00 0.00 0.00 72 1016.2
20260902095306 76 154 0.0 0.0 0.00 0.00 0.00 71 1016.2
20260902094802 76 209 0.0 0.0 0.00 0.00 0.00 71 1015.7
20260902094302 76 127 0.0 0.0 0.00 0.00 0.00 71 1015.7
20260902093803 76 325 0.0 0.0 0.00 0.00 0.00 71 1015.7
20260902093302 76 285 0.0 3.0 0.00 0.00 0.00 71 1015.7
20260902092803 76 144 0.0 3.0 0.00 0.00 0.00 71 1016.0
20260902092305 76 136 0.0 0.0 0.00 0.00 0.00 71 1016.0